This is the latest recevied weather packets stored in our database for station/object KB1FFS. If no packets are shown the sender has not sent any weather packets the latest 10 day(s).
| Time | Temp. | Humidity | Pressure | Rain* | Wind** | Luminosity | Snow |
|---|---|---|---|---|---|---|---|
| 1787845482 | 33.89° C | 54% | 1017.7 hPa | 0 mm | - | 519 W/m² | - |
| 1787845178 | 33.89° C | 55% | 1017.6 hPa | 0 mm | - | 505 W/m² | - |
| 1787844873 | 33.89° C | 56% | 1017.4 hPa | 0 mm | - | 487 W/m² | - |
| 1787844572 | 33.33° C | 57% | 1017.4 hPa | 0 mm | - | 470 W/m² | - |
| 1787844268 | 33.33° C | 58% | 1017.5 hPa | 0 mm | - | 442 W/m² | - |
| 1787843966 | 32.78° C | 60% | 1017.4 hPa | 0 mm | - | 415 W/m² | - |
| 1787843662 | 32.78° C | 59% | 1017.5 hPa | 0 mm | - | 392 W/m² | - |
| 1787843358 | 31.67° C | 62% | 1017.3 hPa | 0 mm | - | 380 W/m² | - |
| 1787843054 | 31.67° C | 62% | 1017.2 hPa | 0 mm | - | 371 W/m² | - |
| 1787842753 | 31.67° C | 64% | 1017.1 hPa | 0 mm | - | 364 W/m² | - |
| 1787842448 | 31.11° C | 65% | 1016.9 hPa | 0 mm | - | 349 W/m² | - |
| 1787842143 | 30.56° C | 66% | 1017 hPa | 0 mm | - | 330 W/m² | - |
| 1787841837 | 30.56° C | 67% | 1017.1 hPa | 0 mm | - | 313 W/m² | - |
| 1787841534 | 30.56° C | 67% | 1017.1 hPa | 0 mm | - | 294 W/m² | - |
| 1787841233 | 30° C | 69% | 1017.1 hPa | 0 mm | - | 276 W/m² | - |
| 1787840928 | 30° C | 70% | 1017.2 hPa | 0 mm | - | 254 W/m² | - |
| 1787840623 | 29.44° C | 71% | 1017.3 hPa | 0 mm | - | 226 W/m² | - |
| 1787840319 | 28.89° C | 72% | 1017.3 hPa | 0 mm | - | 181 W/m² | - |
| 1787840019 | 28.89° C | 73% | 1017.3 hPa | 0 mm | - | 122 W/m² | - |
| 1787839718 | 28.33° C | 76% | 1017.3 hPa | 0 mm | - | 83 W/m² | - |
| 1787839413 | 27.78° C | 77% | 1017.3 hPa | 0 mm | - | 49 W/m² | - |
| 1787839113 | 27.78° C | 77% | 1017.2 hPa | 0 mm | - | 48 W/m² | - |
| 1787838812 | 27.22° C | 77% | 1017.1 hPa | 0 mm | - | 46 W/m² | - |
| 1787838507 | 27.22° C | 78% | 1017 hPa | 0 mm | - | 44 W/m² | - |
| 1787838206 | 26.67° C | 80% | 1017.1 hPa | 0 mm | - | 42 W/m² | - |
* Rain latest hour (hover to see other rain measurements)
** Current wind speed in m/s (hover to see current wind gust speed)